Location: Bismarck
(46.7731°N, 100.8200°W)
Time: 21:02:49
(UTC-05:00)

Amateur Radio Satellites - All Passes

Search period start: 29 July 2015 20:32
Search period end: 30 July 2015 20:32
Location: Bismarck, 46.7731°N, 100.8200°W

Satellite Date Start Highest point End Downlink Frequencies (MHz)
Time Altitude Azimuth
AAUSAT CUBESAT 2 29 Jul 20:37:16 20:39:49 16° 63° (ENE) 20:42:28 437.432
STRAND 1 29 Jul 20:48:29 20:53:36 66° 103° (ESE) 20:58:40 437.568
Cubesat XI-IV 29 Jul 20:51:04 20:53:44 13° 275° (W) 20:56:06 437.490
VERMONT LUNAR 29 Jul 20:54:32 20:56:26 15° 160° (SSE) 20:58:21 437.305
BRITE-PL 29 Jul 21:06:48 21:11:06 46° 261° (W) 21:15:12 437.365/2234.400
UWE-3 29 Jul 21:08:37 21:10:34 13° 60° (ENE) 21:12:42 435.000/436.395/437.385
FUNcube-1 29 Jul 21:14:39 21:16:03 12° 59° (ENE) 21:17:39 145.935
CUBEBUG 2 29 Jul 21:17:06 21:20:04 19° 64° (ENE) 21:23:11 437.445
Cosmos 2499 29 Jul 21:26:23 21:34:23 42° 272° (W) 21:42:26 435.465 / 435.565
COMPASS 1 29 Jul 21:26:56 21:31:04 56° 73° (ENE) 21:35:14 437.405
CUBESAT XI-V 29 Jul 21:27:44 21:30:57 18° 298° (WNW) 21:34:02 437.345
Oscar 11 29 Jul 21:29:57 21:33:32 26° 66° (ENE) 21:37:12 145.826/435.025
GOMX 1 29 Jul 21:32:01 21:36:05 42° 262° (W) 21:40:03 467.674
DOVE 4 29 Jul 21:33:45 21:37:54 66° 259° (WSW) 21:42:03 437.250
CUTE 1.7 + AOD 2 29 Jul 21:35:35 21:39:52 78° 257° (WSW) 21:44:11 437.475
SEEDS 29 Jul 21:37:14 21:41:29 90° 80° (E) 21:45:48 437.485
PCSat 29 Jul 21:38:05 21:40:46 13° 256° (WSW) 21:43:11 145.827
CANX-2 29 Jul 21:43:38 21:47:51 57° 260° (W) 21:52:07 2200.000
HO-68 29 Jul 21:46:18 21:53:23 64° 257° (WSW) 22:00:30 435.675
RS-15 29 Jul 21:47:43 21:56:13 29° 105° (ESE) 22:05:19 29.354- 29.394
DX 1 29 Jul 21:57:13 21:58:39 12° 58° (ENE) 22:00:16 434.975-435.025
HUMSAT D 29 Jul 22:00:13 22:02:31 15° 62° (ENE) 22:04:59 437.325/437.525
PHONESAT 2.4 29 Jul 22:02:08 22:02:55 11° 153° (SSE) 22:03:47 2401.200-2431.200
CINEMA 3 29 Jul 22:03:12 22:07:20 72° 258° (WSW) 22:11:34 145.822/145.860
PRISM 29 Jul 22:08:15 22:11:31 22° 295° (WNW) 22:14:40 437.425
AUBIESAT-1 29 Jul 22:10:32 22:11:31 11° 89° (E) 22:12:47 437.475
AAUSAT CUBESAT 2 29 Jul 22:10:51 22:14:59 58° 260° (W) 22:19:10 437.432
DELFI C3 29 Jul 22:16:15 22:20:11 50° 72° (ENE) 22:24:11 145.870
ZACube-1 29 Jul 22:24:42 22:28:48 56° 73° (ENE) 22:33:01 437.345
STRAND 1 29 Jul 22:28:41 22:32:22 20° 300° (WNW) 22:35:54 437.568
50 SAT 29 Jul 22:29:51 22:31:48 14° 62° (ENE) 22:33:55 437.505
VERMONT LUNAR 29 Jul 22:29:55 22:32:37 26° 177° (S) 22:35:19 437.305
UWE-3 29 Jul 22:42:22 22:46:33 74° 258° (WSW) 22:50:51 435.000/436.395/437.385
FUNcube-1 29 Jul 22:47:34 22:51:45 86° 256° (WSW) 22:56:03 145.935
CUBEBUG 2 29 Jul 22:52:27 22:56:28 45° 262° (W) 23:00:36 437.445
AISAT 29 Jul 22:55:09 22:58:45 25° 65° (ENE) 23:02:25 437.250
COMPASS 1 29 Jul 23:04:34 23:07:08 15° 272° (W) 23:09:34 437.405
Oscar 11 29 Jul 23:05:37 23:09:36 34° 264° (W) 23:13:36 145.826/435.025
UKube-1 29 Jul 23:06:14 23:10:22 47° 71° (ENE) 23:14:33 .
M-CUBED/EXP-1 PRIME 29 Jul 23:10:15 23:14:54 47° 104° (ESE) 23:19:29 437.505
UNISAT 6 29 Jul 23:12:54 23:15:45 16° 88° (E) 23:18:47 437.425
CUBEBUG 1 29 Jul 23:17:55 23:21:24 24° 65° (ENE) 23:24:57 437.445
DX 1 29 Jul 23:29:55 23:34:16 89° 76° (ENE) 23:38:39 434.975-435.025
HUMSAT D 29 Jul 23:33:42 23:37:48 63° 259° (W) 23:41:59 437.325/437.525
VELOX 1 29 Jul 23:34:10 23:38:30 58° 72° (ENE) 23:42:51 145.980
ESTCUBE 1 29 Jul 23:35:15 23:39:31 42° 70° (ENE) 23:43:50 437.505/2401.250
PHONESAT 2.4 29 Jul 23:37:17 23:40:12 24° 169° (S) 23:43:07 2401.200-2431.200
HO-68 29 Jul 23:40:21 23:42:47 11° 279° (W) 23:44:40 435.675
POLYITAN 1 29 Jul 23:40:48 23:41:53 11° 86° (E) 23:43:14 437.675
AUBIESAT-1 29 Jul 23:42:14 23:47:01 81° 108° (ESE) 23:51:43 437.475
AIST 1 29 Jul 23:44:30 23:48:10 27° 71° (ENE) 23:51:51
ISS 29 Jul 23:45:17 23:48:28 55° 148° (SSE) 23:51:41 145.825
Cosmos 2491 29 Jul 23:50:29 23:58:36 42° 68° (ENE) 00:06:47 435.465 / 435.565
DELFI C3 29 Jul 23:53:02 23:55:36 16° 271° (W) 23:58:03 145.870
TIGRISAT 29 Jul 23:56:18 00:00:41 40° 97° (E) 00:05:08 435.000
RS-15 29 Jul 23:56:24 00:07:23 86° 308° (NW) 00:18:52 29.354- 29.394
ANTELSAT 29 Jul 23:56:53 00:01:20 42° 98° (E) 00:05:49 437.575/2403.000
POPSAT HIP 1 29 Jul 23:57:40 00:00:20 17° 90° (E) 00:03:08 437.405
50 SAT 30 Jul 00:02:06 00:05:56 60° 259° (W) 00:09:50 437.505
ZACube-1 30 Jul 00:03:05 00:05:37 15° 272° (W) 00:08:01 437.345
QB50P2 30 Jul 00:04:18 00:07:25 20° 91° (E) 00:10:38 145.880/145.840
SPROUT 30 Jul 00:04:22 00:07:39 23° 65° (ENE) 00:11:03 437.525
VERMONT LUNAR 30 Jul 00:06:26 00:08:52 20° 193° (SSW) 00:11:17 437.305
BUGSAT 1 30 Jul 00:16:06 00:18:29 15° 90° (E) 00:21:00 437.445
YUBILEINY 30 Jul 00:18:53 00:25:02 23° 79° (E) 00:31:31 435.215
TISAT 1 30 Jul 00:26:36 00:29:56 24° 66° (ENE) 00:33:21 437.305
AISAT 30 Jul 00:31:05 00:35:11 37° 263° (W) 00:39:17 437.250
DUCHIFAT 1 30 Jul 00:31:24 00:35:17 34° 96° (E) 00:39:11 145.980
QB50P1 30 Jul 00:32:34 00:36:31 37° 97° (E) 00:40:30 145.935-145.965
NANOSAT C BR1 30 Jul 00:34:53 00:38:51 38° 97° (E) 00:42:51 145.865
UKube-1 30 Jul 00:43:37 00:46:47 19° 269° (W) 00:49:50 .
BEESAT 2 30 Jul 00:44:04 00:46:51 18° 113° (ESE) 00:49:44 435.950
M-CUBED/EXP-1 PRIME 30 Jul 00:45:23 00:49:25 27° 301° (WNW) 00:53:22 437.505
UNISAT 6 30 Jul 00:48:21 00:52:59 63° 287° (WNW) 00:57:38 437.425
CUBEBUG 1 30 Jul 00:53:31 00:57:36 38° 263° (W) 01:01:40 437.445
VELOX 1 30 Jul 01:12:39 01:15:28 16° 271° (W) 01:18:08 145.980
ESTCUBE 1 30 Jul 01:12:58 01:16:36 23° 268° (W) 01:20:09 437.505/2401.250
POLYITAN 1 30 Jul 01:14:08 01:18:26 79° 285° (WNW) 01:22:42 437.675
PHONESAT 2.4 30 Jul 01:14:38 01:17:41 28° 186° (S) 01:20:43 2401.200-2431.200
AUBIESAT-1 30 Jul 01:18:05 01:21:09 17° 306° (NW) 01:24:05 437.475
ISS 30 Jul 01:21:53 01:25:00 41° 347° (NNW) 01:28:08 145.825
AIST 1 30 Jul 01:22:06 01:25:49 29° 270° (W) 01:29:27
BEESAT 3 30 Jul 01:26:17 01:30:17 58° 123° (ESE) 01:34:20 437.485
BEESAT 30 Jul 01:26:46 01:30:21 22° 63° (ENE) 01:34:03 436.000
POPSAT HIP 1 30 Jul 01:32:24 01:36:34 52° 288° (WNW) 01:40:42 437.405
TIGRISAT 30 Jul 01:33:22 01:37:16 26° 294° (WNW) 01:41:07 435.000
ANTELSAT 30 Jul 01:34:04 01:37:55 25° 295° (WNW) 01:41:43 437.575/2403.000
QB50P2 30 Jul 01:39:29 01:43:32 43° 290° (WNW) 01:47:34 145.880/145.840
SPROUT 30 Jul 01:39:31 01:43:33 39° 263° (W) 01:47:35 437.525
SWISSCUBE 30 Jul 01:46:05 01:50:22 34° 67° (ENE) 01:54:43 437.505
Cosmos 2491 30 Jul 01:47:24 01:55:43 50° 270° (W) 02:03:55 435.465 / 435.565
BUGSAT 1 30 Jul 01:50:20 01:54:17 51° 288° (WNW) 01:58:15 437.445
AIST 2 30 Jul 01:58:53 02:02:21 25° 116° (ESE) 02:05:54 435.215
TISAT 1 30 Jul 02:01:41 02:05:32 35° 263° (W) 02:09:24 437.305
ITUPSAT 1 30 Jul 02:05:27 02:10:02 46° 69° (ENE) 02:14:39 437.325
DUCHIFAT 1 30 Jul 02:07:27 02:10:57 25° 294° (WNW) 02:14:24 145.980
QB50P1 30 Jul 02:08:47 02:12:13 24° 294° (WNW) 02:15:36 145.935-145.965
NANOSAT C BR1 30 Jul 02:11:07 02:14:30 23° 295° (WNW) 02:17:48 145.865
RS-15 30 Jul 02:11:21 02:21:35 39° 337° (NNW) 02:32:10 29.354- 29.394
YUBILEINY 30 Jul 02:12:09 02:20:53 84° 280° (W) 02:29:43 435.215
O/OREOS (USA 219) 30 Jul 02:16:25 02:19:25 18° 102° (ESE) 02:22:34 437.305
BEESAT 2 30 Jul 02:20:29 02:24:33 56° 311° (NW) 02:28:37 435.950
Cosmos 2504 30 Jul 02:27:47 02:31:19 15° 75° (ENE) 02:35:23 435.465 / 435.565
Oscar 19 30 Jul 02:34:00 02:38:31 30° 94° (E) 02:43:06 437.125/150
STARS 30 Jul 02:40:41 02:42:30 13° 59° (ENE) 02:44:29 437.465
PHONESAT 2.4 30 Jul 02:52:58 02:55:03 15° 202° (SSW) 02:57:06 2401.200-2431.200
POLYITAN 1 30 Jul 02:53:11 02:53:39 10° 302° (WNW) 02:53:55 437.675
ISS 30 Jul 02:58:51 03:01:54 35° 7° (N) 03:04:57 145.825
KKS-1 30 Jul 02:58:59 03:02:46 29° 66° (ENE) 03:06:35 437.445
BEESAT 30 Jul 03:03:12 03:07:54 52° 261° (W) 03:12:36 436.000
BEESAT 3 30 Jul 03:05:18 03:08:34 22° 323° (NW) 03:11:48 437.485
Gurwin Techsat 1B 30 Jul 03:13:19 03:17:24 23° 91° (E) 03:21:35 435.225
JAS-2 30 Jul 03:20:43 03:25:17 17° 82° (E) 03:30:16 435.910
SWISSCUBE 30 Jul 03:23:57 03:28:14 31° 265° (W) 03:32:31 437.505
MOZHAYETS 4 30 Jul 03:35:29 03:35:54 10° 57° (ENE) 03:36:33
AIST 2 30 Jul 03:36:39 03:40:44 43° 313° (NW) 03:44:51 435.215
ITUPSAT 1 30 Jul 03:44:17 03:48:09 23° 268° (W) 03:51:58 437.325
ITAMSAT 1 30 Jul 03:49:23 03:54:14 40° 97° (E) 03:59:06 435.822/435.867
O/OREOS (USA 219) 30 Jul 03:54:05 03:58:28 53° 300° (WNW) 04:02:55 437.305
BEESAT 2 30 Jul 04:01:31 04:03:31 13° 332° (NNW) 04:05:25 435.950
YUBILEINY 30 Jul 04:12:53 04:19:21 21° 305° (NW) 04:25:33 435.215
Oscar 19 30 Jul 04:13:10 04:17:59 39° 293° (WNW) 04:22:46 437.125/150
STARS 30 Jul 04:13:59 04:18:21 84° 256° (WSW) 04:22:46 437.465
Cosmos 2504 30 Jul 04:15:08 04:22:13 79° 96° (E) 04:29:53 435.465 / 435.565
RS-15 30 Jul 04:28:01 04:37:57 33° 10° (N) 04:48:22 29.354- 29.394
ISS 30 Jul 04:35:19 04:38:35 89° 210° (SSW) 04:41:52 145.825
KKS-1 30 Jul 04:35:19 04:39:19 32° 264° (W) 04:43:19 437.445
Gurwin Techsat 1B 30 Jul 04:52:34 04:57:46 55° 290° (WNW) 05:02:56 435.225
CUSAT 1 30 Jul 04:55:08 04:56:31 13° 95° (E) 04:57:56 437.405
JAS-2 30 Jul 05:03:50 05:11:37 76° 102° (ESE) 05:19:29 435.910
MOZHAYETS 4 30 Jul 05:07:43 05:12:20 70° 74° (ENE) 05:16:59
AO-7 30 Jul 05:10:28 05:18:11 41° 97° (E) 05:25:56 29.400- 29.500
AIST 2 30 Jul 05:18:50 05:20:25 12° 336° (NNW) 05:21:54 435.215
CUBESAT XI-V 30 Jul 05:21:47 05:23:11 11° 58° (ENE) 05:24:48 437.345
HORYU 2 30 Jul 05:28:50 05:33:15 52° 100° (E) 05:37:40 437.375
ITAMSAT 1 30 Jul 05:29:06 05:33:39 31° 295° (WNW) 05:38:07 435.822/435.867
DANDE 30 Jul 05:58:43 06:02:02 64° 101° (E) 06:04:48 436.750
Cosmos 2504 30 Jul 06:09:53 06:15:33 23° 301° (WNW) 06:21:16 435.465 / 435.565
ISS 30 Jul 06:12:33 06:14:39 16° 223° (SW) 06:16:42 145.825
STRAND 1 30 Jul 06:30:02 06:33:38 20° 60° (ENE) 06:37:21 437.568
CUSAT 1 30 Jul 06:36:51 06:38:57 18° 288° (WNW) 06:40:53 437.405
CUTE-I 30 Jul 06:40:44 06:42:43 12° 85° (E) 06:44:59 437.470
RS-15 30 Jul 06:41:55 06:53:23 60° 41° (NE) 07:05:22 29.354- 29.394
MOZHAYETS 4 30 Jul 06:47:30 06:50:08 14° 273° (W) 06:52:35
JAS-2 30 Jul 06:49:37 06:56:04 30° 301° (WNW) 07:02:29 435.910
GONETS M04 30 Jul 06:53:46 07:01:54 48° 89° (E) 07:10:07
CUBESAT XI-V 30 Jul 06:55:13 06:59:55 79° 74° (ENE) 07:04:37 437.345
AO-7 30 Jul 07:03:13 07:11:17 54° 298° (WNW) 07:19:15 29.400- 29.500
HORYU 2 30 Jul 07:06:14 07:09:34 20° 297° (WNW) 07:12:47 437.375
Cubesat XI-IV 30 Jul 07:22:08 07:26:44 29° 94° (E) 07:31:21 437.490
PRISM 30 Jul 07:24:54 07:28:51 42° 70° (ENE) 07:32:49 437.425
BEESAT 3 30 Jul 08:05:04 08:07:42 17° 33° (NNE) 08:10:23 437.485
STRAND 1 30 Jul 08:07:16 08:12:24 66° 258° (WSW) 08:17:33 437.568
Cosmos 2499 30 Jul 08:14:04 08:20:28 34° 85° (E) 08:27:28 435.465 / 435.565
CUTE-I 30 Jul 08:18:21 08:23:43 85° 102° (ESE) 08:29:03 437.470
M-CUBED/EXP-1 PRIME 30 Jul 08:29:00 08:30:48 13° 51° (NE) 08:32:50 437.505
CUBESAT XI-V 30 Jul 08:35:46 08:38:01 13° 274° (W) 08:40:02 437.345
AIST 2 30 Jul 08:40:12 08:41:33 11° 24° (NNE) 08:42:59 435.215
GONETS M04 30 Jul 08:50:40 08:58:55 44° 291° (WNW) 09:07:05
RS-15 30 Jul 08:54:42 09:05:58 54° 246° (WSW) 09:17:29 29.354- 29.394
AO-7 30 Jul 08:57:41 09:02:23 16° 320° (NW) 09:06:46 29.400- 29.500
AUBIESAT-1 30 Jul 08:59:06 09:02:08 20° 56° (ENE) 09:05:25 437.475
BEESAT 2 30 Jul 08:59:11 09:02:52 31° 42° (NE) 09:06:32 435.950
PRISM 30 Jul 09:01:19 09:04:29 20° 268° (W) 09:07:34 437.425
Cubesat XI-IV 30 Jul 09:01:58 09:07:01 43° 292° (WNW) 09:11:59 437.490
BRITE-PL 30 Jul 09:07:42 09:11:43 38° 97° (E) 09:15:59 437.365/2234.400
HO-68 30 Jul 09:11:34 09:16:49 22° 89° (E) 09:22:19 435.675
CUTE 1.7 + AOD 2 30 Jul 09:19:08 09:21:38 15° 88° (E) 09:24:18 437.475
SEEDS 30 Jul 09:20:26 09:22:15 13° 87° (E) 09:24:17 437.485
CANX-2 30 Jul 09:26:39 09:29:51 20° 91° (E) 09:33:07 2200.000
DOVE 4 30 Jul 09:29:20 09:33:06 26° 94° (E) 09:37:07 437.250
GOMX 1 30 Jul 09:29:47 09:33:57 39° 98° (E) 09:38:22 467.674
BEESAT 3 30 Jul 09:42:10 09:46:15 89° 52° (NE) 09:50:16 437.485
AAUSAT CUBESAT 2 30 Jul 09:51:38 09:54:32 18° 90° (E) 09:57:32 437.432
CINEMA 3 30 Jul 09:55:00 09:58:36 23° 92° (E) 10:02:25 145.822/145.860
CUTE-I 30 Jul 09:59:50 10:03:11 17° 303° (WNW) 10:06:21 437.470
M-CUBED/EXP-1 PRIME 30 Jul 10:00:50 10:04:51 88° 72° (ENE) 10:09:17 437.505
Cosmos 2499 30 Jul 10:06:05 10:13:20 53° 287° (WNW) 10:21:09 435.465 / 435.565
UNISAT 6 30 Jul 10:14:54 10:18:00 20° 63° (ENE) 10:21:17 437.425
AIST 2 30 Jul 10:17:13 10:21:14 42° 46° (NE) 10:25:13 435.215
YUBILEINY 30 Jul 10:23:58 10:28:02 14° 47° (NE) 10:32:35 435.215
SO-50 30 Jul 10:29:07 10:33:08 28° 115° (ESE) 10:37:21 436.795
UWE-3 30 Jul 10:29:45 10:33:00 19° 90° (E) 10:36:25 435.000/436.395/437.385
AUBIESAT-1 30 Jul 10:32:33 10:36:29 50° 256° (WSW) 10:40:46 437.475
FUNcube-1 30 Jul 10:33:54 10:36:37 16° 89° (E) 10:39:31 145.935
POLYITAN 1 30 Jul 10:36:30 10:38:30 14° 61° (ENE) 10:40:39 437.675
PCSat 30 Jul 10:36:59 10:42:10 50° 116° (ESE) 10:47:26 145.827
BEESAT 2 30 Jul 10:37:13 10:40:57 34° 242° (WSW) 10:44:35 435.950
CUBEBUG 2 30 Jul 10:40:11 10:44:13 30° 95° (E) 10:48:23 437.445
COMPASS 1 30 Jul 10:42:50 10:47:05 73° 102° (ESE) 10:51:18 437.405
O/OREOS (USA 219) 30 Jul 10:44:53 10:45:49 11° 40° (NE) 10:46:57 437.305
BRITE-PL 30 Jul 10:46:42 10:50:09 23° 293° (WNW) 10:53:40 437.365/2234.400
Oscar 11 30 Jul 10:49:44 10:53:43 34° 96° (E) 10:57:43 145.826/435.025
POPSAT HIP 1 30 Jul 10:53:24 10:56:19 19° 64° (ENE) 10:59:20 437.405
CUTE 1.7 + AOD 2 30 Jul 10:53:44 10:57:59 57° 287° (WNW) 11:02:11 437.475
SEEDS 30 Jul 10:54:19 10:58:36 69° 286° (WNW) 11:02:49 437.485
TIGRISAT 30 Jul 10:57:53 11:02:02 47° 71° (ENE) 11:06:20 435.000
HO-68 30 Jul 10:58:13 11:05:26 79° 289° (WNW) 11:12:36 435.675
ANTELSAT 30 Jul 10:58:41 11:02:53 50° 71° (ENE) 11:07:13 437.575/2403.000
QB50P2 30 Jul 11:00:06 11:03:22 23° 65° (ENE) 11:06:42 145.880/145.840
CANX-2 30 Jul 11:01:53 11:06:00 43° 289° (WNW) 11:10:04 2200.000
DOVE 4 30 Jul 11:06:48 11:10:58 38° 290° (WNW) 11:15:20 437.250
GOMX 1 30 Jul 11:08:22 11:11:58 24° 293° (WNW) 11:15:39 467.674
BUGSAT 1 30 Jul 11:09:12 11:11:47 17° 63° (ENE) 11:14:28 437.445
RS-15 30 Jul 11:12:31 11:16:02 11° 266° (W) 11:18:20 29.354- 29.394
HUMSAT D 30 Jul 11:15:31 11:18:26 18° 90° (E) 11:21:27 437.325/437.525
DX 1 30 Jul 11:17:16 11:18:57 12° 87° (E) 11:20:51 434.975-435.025
BEESAT 3 30 Jul 11:22:47 11:23:35 10° 250° (WSW) 11:24:10 437.485
AAUSAT CUBESAT 2 30 Jul 11:26:21 11:30:24 46° 289° (WNW) 11:34:25 437.432
DUCHIFAT 1 30 Jul 11:26:25 11:30:16 37° 70° (ENE) 11:34:10 145.980
DELFI C3 30 Jul 11:27:11 11:31:13 57° 100° (E) 11:35:12 145.870
QB50P1 30 Jul 11:27:57 11:31:53 40° 70° (ENE) 11:35:51 145.935-145.965
NANOSAT C BR1 30 Jul 11:30:02 11:33:58 42° 70° (ENE) 11:37:58 145.865
CINEMA 3 30 Jul 11:31:36 11:36:00 45° 289° (WNW) 11:40:33 145.822/145.860
50 SAT 30 Jul 11:36:07 11:37:54 13° 88° (E) 11:39:52 437.505
ZACube-1 30 Jul 11:46:09 11:50:41 83° 101° (ESE) 11:55:17 437.345
UNISAT 6 30 Jul 11:50:15 11:54:28 49° 261° (W) 11:58:49 437.425
AIST 2 30 Jul 11:56:09 11:59:38 25° 244° (WSW) 12:02:58 435.215
UWE-3 30 Jul 12:05:24 12:09:50 51° 288° (WNW) 12:14:19 435.000/436.395/437.385
Cosmos 2499 30 Jul 12:06:10 12:09:04 12° 314° (NW) 12:11:33 435.465 / 435.565
SO-50 30 Jul 12:08:49 12:13:29 49° 315° (NW) 12:18:18 436.795
FUNcube-1 30 Jul 12:08:54 12:13:22 61° 287° (WNW) 12:17:52 145.935
POLYITAN 1 30 Jul 12:09:41 12:13:53 73° 258° (WSW) 12:18:07 437.675
CUBEBUG 2 30 Jul 12:16:47 12:20:55 33° 291° (WNW) 12:25:05 437.445
AIST 1 30 Jul 12:18:29 12:20:46 15° 85° (E) 12:23:14
AISAT 30 Jul 12:18:32 12:22:30 32° 96° (E) 12:26:30 437.250
YUBILEINY 30 Jul 12:18:45 12:27:25 58° 74° (ENE) 12:36:07 435.215
COMPASS 1 30 Jul 12:20:04 12:22:14 14° 299° (WNW) 12:24:15 437.405
PCSat 30 Jul 12:20:56 12:25:50 33° 317° (NW) 12:30:42 145.827
O/OREOS (USA 219) 30 Jul 12:21:47 12:26:20 59° 62° (ENE) 12:30:52 437.305
Oscar 11 30 Jul 12:26:06 12:29:48 27° 293° (WNW) 12:33:26 145.826/435.025
UKube-1 30 Jul 12:26:34 12:30:50 57° 100° (E) 12:35:05 .
POPSAT HIP 1 30 Jul 12:27:50 12:31:53 47° 261° (W) 12:35:58 437.405
QB50P2 30 Jul 12:35:06 12:39:04 38° 263° (W) 12:43:01 145.880/145.840
TIGRISAT 30 Jul 12:35:58 12:39:07 19° 270° (W) 12:42:12 435.000
ANTELSAT 30 Jul 12:36:58 12:40:02 18° 271° (W) 12:43:01 437.575/2403.000
CUBEBUG 1 30 Jul 12:39:17 12:43:07 30° 95° (E) 12:46:58 437.445
BUGSAT 1 30 Jul 12:42:59 12:46:56 50° 260° (W) 12:50:51 437.445
HO-68 30 Jul 12:47:16 12:52:12 20° 309° (NW) 12:56:55 435.675
HUMSAT D 30 Jul 12:50:16 12:54:27 50° 288° (WNW) 12:58:38 437.325/437.525
DX 1 30 Jul 12:51:27 12:55:47 73° 287° (WNW) 13:00:06 434.975-435.025
Cosmos 2491 30 Jul 12:55:28 13:03:28 43° 87° (E) 13:11:33 435.465 / 435.565
VELOX 1 30 Jul 12:57:58 13:02:24 79° 103° (ESE) 13:06:48 145.980
ESTCUBE 1 30 Jul 13:01:28 13:05:56 62° 100° (E) 13:10:23 437.505/2401.250
DUCHIFAT 1 30 Jul 13:02:54 13:06:13 22° 268° (W) 13:09:28 145.980
DELFI C3 30 Jul 13:03:25 13:05:52 15° 297° (WNW) 13:08:13 145.870
QB50P1 30 Jul 13:04:43 13:07:57 21° 268° (W) 13:11:05 145.935-145.965
NANOSAT C BR1 30 Jul 13:06:53 13:10:02 20° 269° (W) 13:13:05 145.865
50 SAT 30 Jul 13:08:58 13:12:55 60° 287° (WNW) 13:16:49 437.505
SPROUT 30 Jul 13:23:12 13:26:53 28° 94° (E) 13:30:38 437.525
ZACube-1 30 Jul 13:24:11 13:26:29 14° 300° (WNW) 13:28:38 437.345
ITAMSAT 1 30 Jul 13:34:05 13:36:31 14° 56° (NE) 13:39:11 435.822/435.867
JAS-2 30 Jul 13:40:50 13:41:39 10° 43° (NE) 13:42:49 435.910
TISAT 1 30 Jul 13:43:03 13:46:39 28° 95° (E) 13:50:19 437.305
SO-50 30 Jul 13:52:22 13:55:15 15° 337° (NNW) 13:58:04 436.795
Oscar 19 30 Jul 13:53:33 13:58:33 58° 71° (ENE) 14:03:37 437.125/150
AIST 1 30 Jul 13:53:41 13:58:00 58° 282° (WNW) 14:02:18
AISAT 30 Jul 13:55:13 13:59:01 28° 294° (WNW) 14:02:46 437.250
Cosmos 2504 30 Jul 13:57:12 14:04:29 34° 66° (ENE) 14:12:09 435.465 / 435.565
O/OREOS (USA 219) 30 Jul 14:02:20 14:05:21 17° 259° (WSW) 14:08:13 437.305
UKube-1 30 Jul 14:03:42 14:06:35 17° 298° (WNW) 14:09:21 .
PCSat 30 Jul 14:09:20 14:11:03 11° 341° (NNW) 14:12:39 145.827
CUBEBUG 1 30 Jul 14:15:40 14:19:26 29° 293° (WNW) 14:23:08 437.445
YUBILEINY 30 Jul 14:16:06 14:23:56 36° 275° (W) 14:31:36 435.215
AO-7 30 Jul 14:23:33 14:29:00 20° 45° (NE) 14:34:44 29.400- 29.500
VELOX 1 30 Jul 14:36:08 14:38:24 14° 300° (WNW) 14:40:29 145.980
Gurwin Techsat 1B 30 Jul 14:36:57 14:41:59 46° 69° (ENE) 14:47:06 435.225
ESTCUBE 1 30 Jul 14:39:25 14:42:23 17° 298° (WNW) 14:45:13 437.505/2401.250
Cosmos 2491 30 Jul 14:51:51 15:00:19 49° 289° (WNW) 15:08:42 435.465 / 435.565
SPROUT 30 Jul 14:59:09 15:02:59 31° 292° (WNW) 15:06:45 437.525
BEESAT 30 Jul 15:00:37 15:04:53 32° 95° (E) 15:09:10 436.000
ITAMSAT 1 30 Jul 15:10:04 15:15:17 80° 75° (ENE) 15:20:33 435.822/435.867
TISAT 1 30 Jul 15:18:43 15:22:26 30° 292° (WNW) 15:26:06 437.305
JAS-2 30 Jul 15:19:10 15:24:55 44° 65° (ENE) 15:31:29 435.910
SWISSCUBE 30 Jul 15:20:38 15:25:20 53° 100° (E) 15:29:59 437.505
CUSAT 1 30 Jul 15:24:07 15:27:00 20° 72° (ENE) 15:30:32 437.405
Oscar 19 30 Jul 15:34:33 15:38:21 20° 270° (W) 15:42:03 437.125/150
ITUPSAT 1 30 Jul 15:40:36 15:45:26 74° 103° (ESE) 15:50:12 437.325
Cosmos 2504 30 Jul 15:49:03 15:57:16 64° 267° (W) 16:05:42 435.465 / 435.565
STARS 30 Jul 16:02:06 16:04:29 15° 88° (E) 16:07:03 437.465
AO-7 30 Jul 16:12:13 16:20:30 69° 66° (ENE) 16:28:50 29.400- 29.500
Gurwin Techsat 1B 30 Jul 16:17:43 16:22:13 27° 267° (W) 16:26:40 435.225
KKS-1 30 Jul 16:22:59 16:27:08 37° 97° (E) 16:31:19 437.445
HORYU 2 30 Jul 16:29:39 16:34:03 68° 73° (ENE) 16:38:31 437.375
DANDE 30 Jul 16:32:34 16:35:55 60° 78° (ENE) 16:40:20 436.750
BEESAT 30 Jul 16:38:26 16:42:44 33° 294° (WNW) 16:46:58 436.000
ITAMSAT 1 30 Jul 16:52:29 16:55:32 15° 273° (W) 16:58:20 435.822/435.867
Cosmos 2491 30 Jul 16:57:09 17:00:06 11° 316° (NW) 17:02:31 435.465 / 435.565
SWISSCUBE 30 Jul 16:59:13 17:02:51 21° 298° (WNW) 17:06:22 437.505
GONETS M04 30 Jul 17:00:08 17:07:16 28° 61° (ENE) 17:14:37
MOZHAYETS 4 30 Jul 17:01:35 17:03:50 14° 86° (E) 17:06:18
JAS-2 30 Jul 17:04:33 17:10:10 37° 268° (W) 17:16:26 435.910
CUSAT 1 30 Jul 17:05:56 17:09:31 37° 262° (W) 17:14:07 437.405
Cubesat XI-IV 30 Jul 17:11:25 17:12:54 11° 53° (NE) 17:14:39 437.490
SO-50 30 Jul 17:17:21 17:20:30 17° 26° (NNE) 17:23:44 436.795
ITUPSAT 1 30 Jul 17:19:47 17:22:47 16° 301° (WNW) 17:25:37 437.325
STARS 30 Jul 17:37:02 17:41:25 64° 287° (WNW) 17:45:47 437.465
PCSat 30 Jul 17:39:09 17:42:55 19° 33° (NNE) 17:46:47 145.827
Cosmos 2504 30 Jul 17:44:14 17:48:04 13° 286° (WNW) 17:51:24 435.465 / 435.565
KKS-1 30 Jul 17:59:55 18:03:38 26° 295° (WNW) 18:07:16 437.445
Cosmos 2499 30 Jul 18:00:34 18:05:56 18° 53° (NE) 18:11:48 435.465 / 435.565
CUTE-I 30 Jul 18:04:17 18:08:47 29° 64° (ENE) 18:13:23 437.470
AO-7 30 Jul 18:06:45 18:14:00 31° 267° (W) 18:21:05 29.400- 29.500
HORYU 2 30 Jul 18:08:49 18:11:15 14° 272° (W) 18:13:28 437.375
MOZHAYETS 4 30 Jul 18:37:02 18:41:41 73° 286° (WNW) 18:46:16
Cubesat XI-IV 30 Jul 18:46:47 18:52:05 63° 71° (ENE) 18:57:25 437.490
CUBESAT XI-V 30 Jul 18:50:16 18:53:01 16° 88° (E) 18:55:56 437.345
GONETS M04 30 Jul 18:56:26 19:05:08 75° 265° (W) 19:13:50
SO-50 30 Jul 18:57:11 19:02:07 58° 48° (NE) 19:06:57 436.795
PCSat 30 Jul 19:21:52 19:27:19 75° 55° (NE) 19:32:45 145.827
CUTE-I 30 Jul 19:43:33 19:48:42 46° 261° (W) 19:53:51 437.470
HO-68 30 Jul 19:43:53 19:49:20 25° 55° (NE) 19:54:59 435.675
Cosmos 2499 30 Jul 19:52:19 20:00:59 70° 78° (ENE) 20:09:52 435.465 / 435.565
VERMONT LUNAR 30 Jul 19:53:51 19:54:23 10° 155° (SSE) 19:54:59 437.305
CUTE 1.7 + AOD 2 30 Jul 20:14:59 20:17:43 17° 63° (ENE) 20:20:36 437.475
STRAND 1 30 Jul 20:15:06 20:19:42 33° 95° (E) 20:24:19 437.568
SEEDS 30 Jul 20:15:28 20:17:41 14° 62° (ENE) 20:20:04 437.485
MOZHAYETS 4 30 Jul 20:17:07 20:18:08 10° 303° (WNW) 20:18:54
BRITE-PL 30 Jul 20:21:42 20:26:03 61° 73° (ENE) 20:30:12 437.365/2234.400
CANX-2 30 Jul 20:22:30 20:25:45 22° 65° (ENE) 20:29:07 2200.000
